Weather reports worldwide

Advertisment
Plymouth, United Kingdom (3827): temperature & dewpoint: 21.05.2018 09:00:00 - 27.05.2018 09:00:00 (BST)Plymouth, United Kingdom (3827): wind speed & gusts: 21.05.2018 09:00:00 - 27.05.2018 09:00:00 (BST)Plymouth, United Kingdom (3827): wind direction: 21.05.2018 09:00:00 - 27.05.2018 09:00:00 (BST)Plymouth, United Kingdom (3827): reduced air pressure: 21.05.2018 09:00:00 - 27.05.2018 09:00:00 (BST)Plymouth, United Kingdom (3827): visibility: 21.05.2018 09:00:00 - 27.05.2018 09:00:00 (BST)Plymouth, United Kingdom (3827): precipitation: 21.05.2018 09:00:00 - 27.05.2018 09:00:00 (BST)
Date & Time tt [°C] td [°C] ff [km/h] ff [kn] fx [km/h] fx [kn] dd ppp [hPa] vv [km] rr [mm]
27.05.2018 09:00:00 - - - - - - - - - -
27.05.2018 08:00:00 15,0 14,5 16 9 - - ESE 1013,6 3,1 0,4
27.05.2018 07:00:00 14,7 14,3 18 10 - - E 1013,0 2,9 -
27.05.2018 06:00:00 14,6 13,9 15 8 - - E 1012,5 3,5 0,0
27.05.2018 05:00:00 14,1 13,3 18 10 - - E 1012,0 2,6 0,0
27.05.2018 04:00:00 14,2 13,0 18 10 - - E 1011,7 4,5 0,2
27.05.2018 03:00:00 14,7 12,9 24 13 - - E 1011,4 6 0,0
27.05.2018 02:00:00 16,1 14,3 21 11 - - ENE 1012,0 5 1,8
27.05.2018 01:00:00 17,6 15,1 16 9 46 25 ESE 1013,2 4,8 0,6
27.05.2018 00:00:00 18,7 14,8 16 9 - - ENE 1012,5 10 0,0
26.05.2018 23:00:00 18,4 14,5 21 11 - - ENE 1013,1 12 0,0
26.05.2018 22:00:00 18,9 14,6 21 11 - - ENE 1012,7 12 0,0
26.05.2018 21:00:00 20,5 15,2 22 12 - - ENE 1012,6 14 0,0
26.05.2018 20:00:00 21,6 16,5 18 10 - - ENE 1012,7 11 0,0
26.05.2018 19:00:00 21,7 17,0 16 9 - - NE 1013,1 10 0,0
26.05.2018 18:00:00 20,7 16,7 9 5 - - NNE 1013,8 8 0,0
26.05.2018 17:00:00 19,3 16,2 13 7 - - N 1014,6 8 0,6
26.05.2018 16:00:00 21,5 14,5 21 11 - - NE 1014,8 11 0,0
26.05.2018 15:00:00 21,1 14,9 21 11 - - ENE 1015,5 9 0,0
26.05.2018 14:00:00 20,6 13,7 22 12 - - ENE 1016,2 8 0,0
26.05.2018 13:00:00 20,6 10,6 26 14 - - NE 1016,8 27 0,0
26.05.2018 12:00:00 18,9 12,3 26 14 - - NE 1017,3 10 0,0
26.05.2018 11:00:00 18,4 12,8 22 12 - - NE 1017,9 7 0,0
26.05.2018 10:00:00 19,1 13,2 29 16 - - ENE 1017,5 10 0,0
26.05.2018 09:00:00 18,0 14,0 24 13 - - ENE 1017,6 5 0,0
26.05.2018 08:00:00 16,2 12,8 22 12 - - ENE 1018,1 5 0,0
26.05.2018 07:00:00 14,7 12,7 15 8 - - ENE 1018,2 7 0,0
26.05.2018 06:00:00 13,4 12,5 13 7 - - ENE 1018,1 3,7 0,0
26.05.2018 05:00:00 13,3 12,3 13 7 - - ENE 1018,1 5 0,0
26.05.2018 04:00:00 12,8 11,7 9 5 - - NE 1018,1 4,6 0,0
26.05.2018 03:00:00 13,2 11,7 9 5 - - ENE 1018,4 7 0,0
26.05.2018 02:00:00 13,2 11,8 9 5 - - E 1018,7 6 0,0
26.05.2018 01:00:00 13,7 12,1 11 6 - - E 1018,8 7 0,0
26.05.2018 00:00:00 14,7 12,6 8 4 - - E 1018,6 9 0,0
25.05.2018 23:00:00 15,2 13,0 8 4 - - E 1018,7 7 0,0
25.05.2018 22:00:00 15,5 12,8 5 3 - - NNE 1018,4 17 0,0
25.05.2018 21:00:00 15,7 12,8 8 4 - - NNW 1018,0 15 0,0
25.05.2018 20:00:00 15,9 13,1 4 2 - - NNW 1017,9 12 0,0
25.05.2018 19:00:00 16,1 13,5 8 4 - - SSW 1017,8 7 0,0
25.05.2018 18:00:00 16,2 13,2 13 7 - - SSW 1017,7 5 0,0
25.05.2018 17:00:00 15,9 12,9 9 5 - - SSW 1018,2 6 0,0
25.05.2018 16:00:00 17,0 13,3 11 6 - - SW 1018,3 6 0,0
25.05.2018 15:00:00 17,6 13,6 15 8 - - S 1018,3 7 0,0
25.05.2018 14:00:00 16,8 13,4 13 7 - - SW 1018,3 9 0,0
25.05.2018 13:00:00 16,0 13,1 11 6 - - SSW 1018,4 11 0,0
25.05.2018 12:00:00 19,4 14,6 13 7 - - SSW 1018,4 9 0,0
25.05.2018 11:00:00 16,8 13,2 9 5 - - SSW 1018,6 8 0,0
25.05.2018 10:00:00 17,8 13,7 5 3 - - SW 1018,5 9 0,0
25.05.2018 09:00:00 15,8 13,4 5 3 - - SSW 1018,8 5 0,0
25.05.2018 08:00:00 14,8 13,5 2 1 - - W 1018,5 5 0,0
25.05.2018 07:00:00 13,3 12,9 0 0 - - N 1018,6 4,7 0,0
25.05.2018 06:00:00 12,2 11,7 4 2 - - W 1018,4 3,8 0,0
25.05.2018 05:00:00 11,8 11,1 2 1 - - WNW 1018,5 2,9 0,0
25.05.2018 04:00:00 12,3 11,6 5 3 - - NW 1018,6 3,5 0,0
25.05.2018 03:00:00 12,8 12,2 5 3 - - WNW 1018,7 3,2 0,0
25.05.2018 02:00:00 12,6 12,1 5 3 - - W 1019,1 2,1 0,0
25.05.2018 01:00:00 12,8 11,9 4 2 - - W 1019,0 2,8 0,0
25.05.2018 00:00:00 12,9 12,2 4 2 - - N 1019,4 3,9 0,0
24.05.2018 23:00:00 12,3 11,6 5 3 - - W 1019,6 3,6 0,0
24.05.2018 22:00:00 12,4 11,8 8 4 - - SW 1019,6 3,0 0,0
24.05.2018 21:00:00 12,7 12,0 5 3 - - SSW 1019,5 2,2 0,0
24.05.2018 20:00:00 12,8 12,3 4 2 - - W 1019,5 1,6 0,0
24.05.2018 19:00:00 12,9 11,8 5 3 - - W 1019,5 1,4 0,0
24.05.2018 18:00:00 13,3 11,6 13 7 - - SSW 1019,5 5 0,0
24.05.2018 17:00:00 13,8 11,5 15 8 - - SSW 1019,3 6 0,0
24.05.2018 16:00:00 14,7 11,6 15 8 - - SSW 1019,3 8 0,0
24.05.2018 15:00:00 15,5 11,6 13 7 - - SW 1019,5 10 0,0
24.05.2018 14:00:00 15,3 11,3 13 7 - - SW 1019,7 9 0,0
24.05.2018 13:00:00 18,1 12,6 11 6 - - SSW 1019,8 13 0,0
24.05.2018 12:00:00 16,8 11,9 9 5 - - S 1020,0 10 0,0
24.05.2018 11:00:00 16,5 10,9 11 6 - - E 1020,1 12 0,0
24.05.2018 10:00:00 17,0 11,3 9 5 - - ENE 1020,1 14 0,0
24.05.2018 09:00:00 15,5 10,7 13 7 - - E 1020,3 14 0,0
24.05.2018 08:00:00 14,5 10,4 9 5 - - ENE 1020,2 8 0,0
24.05.2018 07:00:00 14,2 10,0 8 4 - - ENE 1020,1 10 0,0
24.05.2018 06:00:00 14,4 10,2 13 7 - - ENE 1020,1 12 0,0
24.05.2018 05:00:00 14,6 11,5 9 5 - - ENE 1020,4 13 0,0
24.05.2018 04:00:00 14,8 11,4 8 4 - - E 1020,8 11 0,0
24.05.2018 03:00:00 14,9 11,3 8 4 - - E 1020,8 10 0,0
24.05.2018 02:00:00 15,0 11,0 5 3 - - ENE 1021,2 17 0,0
24.05.2018 01:00:00 15,0 10,9 8 4 - - ENE 1021,2 17 0,0
24.05.2018 00:00:00 14,8 10,5 8 4 - - ENE 1021,4 14 0,0
23.05.2018 23:00:00 13,9 10,9 9 5 - - ENE 1021,6 12 0,0
23.05.2018 22:00:00 13,7 10,5 2 1 - - SW 1021,6 16 0,0
23.05.2018 21:00:00 14,0 9,7 4 2 - - WSW 1021,4 10 0,0
23.05.2018 20:00:00 16,9 10,5 4 2 - - W 1021,5 18 0,0
23.05.2018 19:00:00 15,2 10,4 8 4 - - SW 1021,5 9 0,0
23.05.2018 18:00:00 17,1 10,6 9 5 - - SSW 1021,8 9 0,0
23.05.2018 17:00:00 17,8 11,8 11 6 - - SW 1022,2 10 0,0
23.05.2018 16:00:00 17,3 11,3 15 8 - - SSW 1022,4 9 0,0
23.05.2018 15:00:00 17,8 12,6 15 8 - - SW 1022,6 11 0,0
23.05.2018 14:00:00 17,6 11,8 18 10 - - SW 1022,7 11 0,0
23.05.2018 13:00:00 17,3 12,2 18 10 - - SW 1023,0 9 0,0
23.05.2018 12:00:00 17,3 11,9 15 8 - - SW 1023,0 11 0,0
23.05.2018 11:00:00 19,6 11,8 8 4 - - SE 1022,8 27 0,0
23.05.2018 10:00:00 16,7 11,9 11 6 - - SW 1022,7 15 0,0
23.05.2018 09:00:00 16,4 11,4 5 3 - - WSW 1022,3 17 0,0
23.05.2018 08:00:00 14,0 11,4 8 4 - - WNW 1022,2 13 0,0
23.05.2018 07:00:00 12,0 9,8 5 3 - - S 1022,1 14 0,0
23.05.2018 06:00:00 11,4 7,9 4 2 - - ESE 1021,5 19 0,0
23.05.2018 05:00:00 11,7 8,9 2 1 - - SW 1021,1 22 0,0
23.05.2018 04:00:00 13,5 8,9 8 4 - - E 1021,0 24 0,0
23.05.2018 03:00:00 14,5 9,7 11 6 - - NE 1021,0 17 0,0
23.05.2018 02:00:00 13,3 9,7 5 3 - - NNE 1021,0 22 0,0
23.05.2018 01:00:00 13,6 10,0 8 4 - - NNE 1021,0 18 0,0
23.05.2018 00:00:00 13,4 9,8 4 2 - - N 1020,8 19 0,0
22.05.2018 23:00:00 14,9 9,8 5 3 - - NNE 1020,4 22 0,0
22.05.2018 22:00:00 16,4 10,4 11 6 - - NNE 1020,0 27 0,0
22.05.2018 21:00:00 18,1 9,9 15 8 - - NNE 1019,1 27 0,0
22.05.2018 20:00:00 19,2 10,7 8 4 - - N 1018,6 12 0,0
22.05.2018 19:00:00 18,1 10,7 15 8 - - SSW 1018,1 22 0,0
22.05.2018 18:00:00 19,3 12,0 16 9 - - SSW 1018,0 13 0,0
22.05.2018 17:00:00 20,0 12,2 16 9 - - SSW 1017,9 35 0,0
22.05.2018 16:00:00 20,6 12,3 18 10 - - SSW 1017,8 14 0,0
22.05.2018 15:00:00 21,1 12,6 13 7 - - SSW 1018,1 14 0,0
22.05.2018 14:00:00 22,2 13,4 9 5 - - SSW 1017,8 15 0,0
22.05.2018 13:00:00 22,6 11,9 11 6 - - N 1017,7 12 0,0
22.05.2018 12:00:00 21,8 11,2 9 5 - - N 1017,7 18 0,0
22.05.2018 11:00:00 18,6 12,6 9 5 - - WNW 1017,5 11 0,0
22.05.2018 10:00:00 15,5 11,4 8 4 - - NNW 1017,6 10 0,0
22.05.2018 09:00:00 13,6 10,2 15 8 - - NNW 1017,5 15 0,0
22.05.2018 08:00:00 13,0 10,2 4 2 - - WNW 1017,1 13 0,0
22.05.2018 07:00:00 12,3 9,7 8 4 - - NW 1016,6 14 0,0
22.05.2018 06:00:00 11,5 8,7 2 1 - - NNW 1016,0 15 0,0
22.05.2018 05:00:00 11,7 8,8 9 5 - - NW 1015,9 21 0,0
22.05.2018 04:00:00 11,8 8,3 4 2 - - NNE 1016,1 20 0,0
22.05.2018 03:00:00 12,0 8,2 5 3 - - NNW 1016,0 16 0,0
22.05.2018 02:00:00 12,4 8,1 11 6 - - N 1016,1 23 0,0
22.05.2018 01:00:00 12,9 8,6 8 4 - - NW 1016,2 13 0,0
22.05.2018 00:00:00 12,6 8,7 2 1 - - NNW 1016,6 20 0,0
21.05.2018 23:00:00 14,4 8,9 5 3 - - NE 1016,5 20 0,0
21.05.2018 22:00:00 16,0 9,2 11 6 - - NNE 1016,4 26 0,0
21.05.2018 21:00:00 17,3 9,4 15 8 - - N 1015,8 16 0,0
21.05.2018 20:00:00 18,8 9,6 26 14 - - N 1015,4 15 0,0
21.05.2018 19:00:00 17,8 10,3 13 7 - - SSW 1015,3 9 0,0
21.05.2018 18:00:00 17,6 10,2 18 10 - - SSW 1015,3 14 0,0
21.05.2018 17:00:00 19,0 11,2 11 6 - - SSW 1015,2 11 0,0
21.05.2018 16:00:00 19,3 11,4 15 8 - - SSW 1015,5 9 0,0
21.05.2018 15:00:00 19,7 11,4 15 8 - - SSW 1015,6 13 0,0
21.05.2018 14:00:00 19,9 10,6 13 7 - - SSW 1015,7 17 0,0
21.05.2018 13:00:00 21,9 10,1 8 4 - - E 1015,7 13 0,0
21.05.2018 12:00:00 20,2 9,4 11 6 - - E 1016,0 18 0,0
21.05.2018 11:00:00 18,6 8,8 13 7 - - ENE 1016,2 13 0,0
21.05.2018 10:00:00 17,5 9,8 11 6 - - E 1016,4 11 0,0
21.05.2018 09:00:00 16,5 9,7 11 6 - - E 1016,4 13 0,0

tt = temperature
td = dewpoint
ff = wind speed
fx = gusts
dd = wind direction
ppp = reduced air pressure
vv = visibility
rr = precipitation

Next stations